Regional Weather Roundup
Issued by NWS

Home | Current Version | Previous Version | Graphics & Text | Print | Product List | Glossary On
Versions: 1 2 3 4 5 6 7 8 9 10 11 12 13 14 15 16 17 18 19 20 21 22 23 24 25 26 27 28 29 30 31 32 33 34 35 36 37 38 39 40 41 42 43 44 45 46 47 48 49 50
467
ASUS45 KSLC 220810
RWRUT

UTAH REGIONAL WEATHER ROUNDUP
NATIONAL WEATHER SERVICE SALT LAKE CITY UT
100 AM MST WED NOV 22 2017

UTZ001>011-023>025-220900-

NORTHERN UTAH

CITY           SKY/WX    TMP DP  RH WIND       PRES   REMARKS
BRIGHAM CITY   CLOUDY    47  41  78 CALM      30.38F
HILL AFB       MOCLDY    49  38  66 E9        30.38F
LOGAN          CLOUDY    48  44  86 CALM      30.38S
OGDEN          CLOUDY    49  39  68 S7        30.37F
SALT LAKE CITY MOCLDY    49  40  71 SE6       30.38S
TOOELE VALLEY  PTCLDY    45  39  81 S10       30.39F
WENDOVER       MOCLDY    40  33  76 CALM      30.39R
HEBER CITY       N/A     34  32  93 CALM      30.44S
WEST JORDAN    PTCLDY    45  40  82 S8        30.40S

$$

UTZ011>015-024>027-220900-

CENTRAL/NORTHEAST UTAH

CITY           SKY/WX    TMP DP  RH WIND       PRES   REMARKS
PROVO AIRPORT  PTCLDY    39  35  86 CALM      30.42S
MOAB/CANYONLAN CLOUDY    37  12  35 CALM      30.38F
DELTA          MOCLDY    37  28  70 NE5       30.42R WCI  34
PRICE          MOCLDY    37  18  46 N6        30.41S WCI  32
ROOSEVELT      CLOUDY    36  28  75 W3        30.41S
VERNAL         CLOUDY    41  31  67 W5        30.40R

$$

UTZ013>016-019>022-027-220900-

SOUTHERN UTAH

CITY           SKY/WX    TMP DP  RH WIND       PRES   REMARKS
BRYCE CANYON   MOCLDY    29  27  92 W8        30.50S WCI  21
CEDAR CITY     PTCLDY    37  31  78 CALM      30.41S
MILFORD        MOCLDY    39  31  72 SW3       30.41R
ST GEORGE      SUNNY     47  16  29 S5        30.33S
HANKSVILLE     MOCLDY    34  10  37 CALM      30.43F
BLANDING         N/A     42  29  61 CALM      30.47S

$$

REGIONAL REPORTS     COLORADO/ARIZONA

CITY           SKY/WX    TMP DP  RH WIND       PRES   REMARKS
CRAIG, CO      CLOUDY    34  31  88 SW6       30.42S WCI  29
GRAND JUNCTION CLOUDY    38  27  64 CALM      30.42R
RIFLE, CO      CLOUDY    32  30  92 S3        30.44S
MONTROSE, CO   CLOUDY    34  29  82 S7        30.45F WCI  28
CORTEZ, CO     CLOUDY    30  24  78 E9        30.39S WCI  22
COLORADO CITY    N/A     39  27  60 CALM      30.41S
PAGE, AZ       PTCLDY    47  20  34 SW3       30.37F
GRAND CANYON   PTCLDY    32  21  64 E3        30.44F
KINGMAN, AZ    PTCLDY    49  22  34 E5        30.27S
FLAGSTAFF, AZ  PTCLDY    44  27  51 E7        30.43S

$$

REGIONAL REPORTS    NEVADA/IDAHO/WYOMING

CITY           SKY/WX    TMP DP  RH WIND       PRES   REMARKS
LAS VEGAS, NV  MOCLDY    59  30  33 W7        30.24S
ELY, NY        PTCLDY    34  28  79 S13       30.46S WCI  25
ELKO, NV       PTCLDY    40  37  89 CALM      30.39S
POCATELLO, ID  FOG       39  39 100 E3        30.35F VSB 3/4
BURLEY, ID     MOCLDY    43  41  93 CALM      30.31F
FORT BRIDGER,  CLOUDY    44  36  73 W12G18    30.46R
EVANSTON, WY   CLOUDY    41  36  82 SW9       30.45R
ROCK SPRINGS,  CLOUDY    43  35  73 SW12      30.41F
KEMMERER, WY   CLOUDY    37  34  87 SW5       30.43F WCI  34

$$




USA.gov is the U.S. government's official web portal to all federal, state and local government web resources and services.